ONEWEB-0362, 49288

Orbit data source: Space-Track

ONEWEB-0362, 49288 is a payload satellite owned by One Web (NAA) (UK) in LEO that was launched on Thu, 14 Oct 2021 UTC via a SOYUZ-2-1B launch vehicle from the Vostochny Cosmodrome (VOSTO). Payload-class satellites include a variety of spacecraft equipped with specific instruments for various scientific and technological missions. These include communications satellites like Starlink; space stations such as the ISS; scientific satellites like the Hubble; Earth observation satellites from companies like Planet Labs, Umbra, and HawkEye 360; GPS; miniature CubeSats for education and research; and military/defense satellites.

Loading next visibility...
Identifier
49288, 2021-090K
Orbit
LEO
Country
Flag of UKUK
Related business
Manufacturer
One Web
Mission
Operational Commercial Communications
Bus & Motor
ARROW, Unknown motor
Mass
148 kg wet, ~140 kg dry
Launch date (UTC)
2021-10-14 (5 years ago)
Launch vehicle
SOYUZ-2-1B
Launch site
Vostochny Cosmodrome (VOSTO)
Object type
Payload
Rocket body
Debris
Shape & HBR
Trap Box + 2 Pan, 6.7 m
Radar Cross Section
3.464 m², Large (>1 m²)

Expand to show TLE details & history
Last TLE update: 2 days ago

TLE from 2 days ago
0 ONEWEB-0362
1 49288U 21090K   26171.36153396  .00000008  00000-0 -13521-4 0  9991
2 49288  87.9174 304.3453 0001955 107.2146 252.9201 13.19724436227330
Epoch: 2026-06-20T08:40Z
TLE epoch observation values (Epoch: 2026-06-20T08:40:36.534Z)
Latitude
0.00002°
Longitude
-94.38418°
Altitude
1,189.109 km
Speed
7.259 km/s
True Right ascension
20h 17m 22s
True Declination
0° 00' 00"
Sunlit
Object was in full shadow at epoch
Visualization orbit readout
Latitude
Unknown
Longitude
Unknown
Altitude
Unknown
Speed
Unknown
Apparent Right ascension
Unknown
Apparent Declination
Unknown
Sunlit
N/A
Visualization observer readout
Local Sidereal Time
21:37:24
Azimuth
Unknown
Elevation
Unknown
Doppler factor
Unknown
Orbital elements
Apogee altitude
1,184.357 km
Perigee altitude
1,181.4 km
Semi-major axis
7,561.015 km
Eccentricity
0.0002
Inclination
87.9174°
RAAN
304.3453°
Arg. of periapsis
107.2146°
True anomaly
252.89869°
Mean anomaly
252.9201°
Eccentric anomaly
252.90939°
Mean motion
3.30121 °/min
Orbital period
109.05 mins
BSTAR
-0.000013521
Loading maneuver chart data...
Computing Atmospheric mass density...
Loading historical data...
Loading historical data...
Loading historical data...
Loading historical data...
Loading historical data...
Loading historical data...
Loading historical data...

Documentation

Showing up to 5 results
|